When you browse on this site, cookies collect data to enhance your experience and personalize the content and advertising you see.
Visit our Privacy Policy to learn more. By continuing to use the site, you agree to this use of cookies and data.
  • în România
  • Lista ţărilor
  • Pe 7 zile
  • Temperatura apei
  • Hartă satelitară
  • Meteo pe hartă
  • Widget-uri
  • user-avatar
    Intrare

    Meteo pe oră la Gulaothi

    Astăzi, 18 Iulie, Joi

    Timp Temperatura Precipitaţii Vânt Presiune Umiditate
    00:00 +30°C° 0 mm 1 m/s 732 mmHg 62%
    01:00 +29°C° 0 mm 1 m/s 732 mmHg 65%
    02:00 +29°C° 0 mm 1 m/s 732 mmHg 67%
    03:00 +29°C° 0.1 mm 1 m/s 732 mmHg 67%
    04:00 +29°C° 0.1 mm 1 m/s 732 mmHg 68%
    05:00 +29°C° 0 mm 1 m/s 732 mmHg 66%
    06:00 +29°C° 0 mm 1 m/s 732 mmHg 65%
    07:00 +30°C° 0 mm 1 m/s 732 mmHg 63%
    08:00 +31°C° 0 mm 2 m/s 732 mmHg 61%
    09:00 +34°C° 0 mm 2 m/s 732 mmHg 57%
    10:00 +35°C° 0 mm 2 m/s 732 mmHg 53%
    11:00 +34°C° 0 mm 1 m/s 733 mmHg 54%
    12:00 +35°C° 0 mm 1 m/s 732 mmHg 52%
    13:00 +36°C° 0 mm 2 m/s 732 mmHg 51%
    14:00 +36°C° 0 mm 2 m/s 731 mmHg 49%
    15:00 +36°C° 0 mm 2 m/s 731 mmHg 47%
    16:00 +36°C° 0 mm 1 m/s 730 mmHg 45%
    17:00 +36°C° 0 mm 1 m/s 730 mmHg 43%
    18:00 +35°C° 0 mm 1 m/s 730 mmHg 45%
    19:00 +34°C° 0 mm 1 m/s 730 mmHg 48%
    20:00 +33°C° 0 mm 1 m/s 731 mmHg 50%
    21:00 +33°C° 0 mm 1 m/s 731 mmHg 51%
    22:00 +33°C° 0 mm 1 m/s 731 mmHg 52%
    23:00 +33°C° 0 mm 1 m/s 731 mmHg 53%

    Mâine, 19 Iulie, Vineri

    Timp Temperatura Precipitaţii Vânt Presiune Umiditate
    00:00 +32°C° 0 mm 1 m/s 731 mmHg 55%
    01:00 +32°C° 0 mm 1 m/s 731 mmHg 57%
    02:00 +32°C° 0 mm 1 m/s 730 mmHg 60%
    03:00 +31°C° 0.6 mm 1 m/s 731 mmHg 63%
    04:00 +31°C° 0.6 mm 1 m/s 731 mmHg 66%
    05:00 +30°C° 0.6 mm 1 m/s 731 mmHg 70%
    06:00 +31°C° 0.1 mm 1 m/s 732 mmHg 68%
    07:00 +32°C° 0.1 mm 1 m/s 732 mmHg 66%
    08:00 +34°C° 0.1 mm 2 m/s 733 mmHg 64%
    09:00 +34°C° 0 mm 2 m/s 733 mmHg 62%
    10:00 +35°C° 0 mm 2 m/s 733 mmHg 60%
    11:00 +36°C° 0 mm 2 m/s 733 mmHg 58%
    12:00 +36°C° 0 mm 1 m/s 732 mmHg 52%
    13:00 +37°C° 0 mm 1 m/s 732 mmHg 47%
    14:00 +40°C° 0 mm 1 m/s 731 mmHg 41%
    15:00 +39°C° 0.1 mm 1 m/s 731 mmHg 42%
    16:00 +39°C° 0.1 mm 1 m/s 731 mmHg 42%
    17:00 +39°C° 0.1 mm 1 m/s 730 mmHg 42%
    18:00 +37°C° 0 mm 1 m/s 730 mmHg 45%
    19:00 +36°C° 0 mm 1 m/s 731 mmHg 48%
    20:00 +35°C° 0 mm 1 m/s 731 mmHg 51%
    21:00 +35°C° 0 mm 1 m/s 731 mmHg 52%
    22:00 +34°C° 0 mm 1 m/s 731 mmHg 52%
    23:00 +32°C° 0 mm 0 m/s 731 mmHg 53%

    Poimâine, 20 Iulie, Sâmbătă

    Timp Temperatura Precipitaţii Vânt Presiune Umiditate
    00:00 +32°C° 0 mm 0 m/s 731 mmHg 54%
    01:00 +31°C° 0 mm 0 m/s 731 mmHg 54%
    02:00 +31°C° 0 mm 0 m/s 731 mmHg 55%
    03:00 +31°C° 0.2 mm 0 m/s 731 mmHg 57%
    04:00 +30°C° 0.2 mm 0 m/s 731 mmHg 58%
    05:00 +30°C° 0.2 mm 0 m/s 731 mmHg 60%
    06:00 +33°C° 0.2 mm 1 m/s 732 mmHg 56%
    07:00 +35°C° 0.2 mm 1 m/s 732 mmHg 53%
    08:00 +36°C° 0.2 mm 1 m/s 733 mmHg 49%
    09:00 +39°C° 0 mm 1 m/s 733 mmHg 45%
    10:00 +40°C° 0 mm 1 m/s 733 mmHg 40%
    11:00 +42°C° 0 mm 1 m/s 733 mmHg 36%
    12:00 +42°C° 0 mm 2 m/s 733 mmHg 36%
    13:00 +42°C° 0 mm 2 m/s 732 mmHg 36%
    14:00 +43°C° 0 mm 3 m/s 732 mmHg 36%
    15:00 +41°C° 0 mm 2 m/s 731 mmHg 38%
    16:00 +40°C° 0 mm 2 m/s 731 mmHg 40%
    17:00 +40°C° 0 mm 2 m/s 730 mmHg 42%
    18:00 +39°C° 0 mm 1 m/s 730 mmHg 42%
    19:00 +37°C° 0 mm 1 m/s 730 mmHg 43%
    20:00 +35°C° 0 mm 0 m/s 731 mmHg 44%
    21:00 +36°C° 0 mm 1 m/s 731 mmHg 45%
    22:00 +36°C° 0 mm 1 m/s 730 mmHg 45%
    23:00 +36°C° 0 mm 1 m/s 730 mmHg 46%

    21 Iulie, Duminică

    Timp Temperatura Precipitaţii Vânt Presiune Umiditate
    00:00 +35°C° 0 mm 1 m/s 730 mmHg 47%
    01:00 +33°C° 0 mm 0 m/s 730 mmHg 48%
    02:00 +33°C° 0 mm 0 m/s 730 mmHg 50%
    03:00 +32°C° 0 mm 0 m/s 730 mmHg 50%
    04:00 +32°C° 0 mm 0 m/s 730 mmHg 51%
    05:00 +32°C° 0 mm 0 m/s 730 mmHg 52%
    06:00 +35°C° 0 mm 1 m/s 731 mmHg 49%
    07:00 +36°C° 0 mm 1 m/s 731 mmHg 46%
    08:00 +39°C° 0 mm 1 m/s 731 mmHg 43%
    09:00 +40°C° 0 mm 1 m/s 731 mmHg 40%
    10:00 +41°C° 0 mm 2 m/s 731 mmHg 36%
    11:00 +43°C° 0 mm 2 m/s 732 mmHg 32%
    12:00 +43°C° 0 mm 3 m/s 731 mmHg 33%
    13:00 +43°C° 0 mm 3 m/s 730 mmHg 34%
    14:00 +43°C° 0 mm 3 m/s 729 mmHg 35%
    15:00 +43°C° 0 mm 3 m/s 729 mmHg 34%
    16:00 +42°C° 0 mm 2 m/s 729 mmHg 34%
    17:00 +42°C° 0 mm 1 m/s 728 mmHg 34%
    18:00 +41°C° 0 mm 1 m/s 729 mmHg 36%
    19:00 +40°C° 0 mm 1 m/s 729 mmHg 39%
    20:00 +39°C° 0 mm 1 m/s 729 mmHg 41%
    21:00 +37°C° 0 mm 1 m/s 729 mmHg 42%
    22:00 +37°C° 0 mm 1 m/s 729 mmHg 44%
    23:00 +36°C° 0 mm 1 m/s 729 mmHg 45%

    22 Iulie, Luni

    Timp Temperatura Precipitaţii Vânt Presiune Umiditate
    00:00 +34°C° 0 mm 0 m/s 729 mmHg 46%
    01:00 +33°C° 0 mm 0 m/s 729 mmHg 46%
    02:00 +33°C° 0 mm 0 m/s 728 mmHg 47%
    03:00 +33°C° 0 mm 0 m/s 728 mmHg 48%
    04:00 +35°C° 0 mm 1 m/s 729 mmHg 48%
    05:00 +34°C° 0 mm 1 m/s 729 mmHg 49%
    06:00 +35°C° 0 mm 1 m/s 729 mmHg 48%
    07:00 +36°C° 0 mm 1 m/s 729 mmHg 47%
    08:00 +37°C° 0 mm 1 m/s 730 mmHg 46%
    09:00 +39°C° 0 mm 2 m/s 730 mmHg 43%
    10:00 +40°C° 0 mm 2 m/s 730 mmHg 41%
    11:00 +42°C° 0 mm 3 m/s 730 mmHg 38%
    12:00 +43°C° 0 mm 3 m/s 729 mmHg 34%
    13:00 +45°C° 0 mm 4 m/s 729 mmHg 29%
    14:00 +47°C° 0 mm 4 m/s 728 mmHg 25%
    15:00 +47°C° 0 mm 4 m/s 728 mmHg 26%
    16:00 +45°C° 0 mm 4 m/s 727 mmHg 27%
    17:00 +44°C° 0 mm 3 m/s 727 mmHg 28%
    18:00 +43°C° 0 mm 3 m/s 727 mmHg 30%
    19:00 +42°C° 0 mm 3 m/s 727 mmHg 33%
    20:00 +39°C° 0 mm 3 m/s 727 mmHg 35%
    21:00 +39°C° 0 mm 2 m/s 727 mmHg 36%
    22:00 +37°C° 0 mm 1 m/s 728 mmHg 36%
    23:00 +35°C° 0 mm 0 m/s 728 mmHg 37%

    23 Iulie, Marţi

    Timp Temperatura Precipitaţii Vânt Presiune Umiditate
    00:00 +35°C° 0 mm 0 m/s 728 mmHg 37%
    01:00 +34°C° 0 mm 0 m/s 728 mmHg 38%
    02:00 +36°C° 0 mm 1 m/s 727 mmHg 38%
    03:00 +35°C° 0 mm 1 m/s 728 mmHg 42%
    04:00 +35°C° 0 mm 1 m/s 728 mmHg 45%
    05:00 +35°C° 0 mm 2 m/s 728 mmHg 49%
    06:00 +36°C° 0 mm 2 m/s 728 mmHg 53%
    07:00 +36°C° 0 mm 2 m/s 729 mmHg 57%
    08:00 +36°C° 0 mm 2 m/s 729 mmHg 60%
    09:00 +37°C° 0 mm 2 m/s 729 mmHg 55%
    10:00 +39°C° 0 mm 2 m/s 730 mmHg 49%
    11:00 +40°C° 0 mm 2 m/s 730 mmHg 44%
    12:00 +43°C° 0 mm 3 m/s 729 mmHg 38%
    13:00 +45°C° 0 mm 4 m/s 728 mmHg 32%
    14:00 +47°C° 0 mm 5 m/s 728 mmHg 25%
    15:00 +47°C° 0 mm 4 m/s 727 mmHg 26%
    16:00 +47°C° 0 mm 4 m/s 727 mmHg 26%
    17:00 +45°C° 0 mm 4 m/s 726 mmHg 26%
    18:00 +44°C° 0 mm 4 m/s 727 mmHg 30%
    19:00 +42°C° 0 mm 3 m/s 727 mmHg 34%
    20:00 +40°C° 0 mm 3 m/s 727 mmHg 37%
    21:00 +39°C° 0 mm 3 m/s 727 mmHg 45%
    22:00 +38°C° 0 mm 4 m/s 727 mmHg 53%
    23:00 +36°C° 0 mm 5 m/s 728 mmHg 60%
    Arată mai mult